M I D A S
Marine Information and Data Acquisition System
Tripno 1941 of the Zeeleeuw from 2010-08-19 08:00:00 to 2010-08-19 17:00:00
Back to CruiseResearch ActivitiesStationsMapUnderway DataData graphs

EquipmentUnitsComment
TimeDGPSUTC
LatitudeDGPSDM.mWGS84
LongitudeDGPSDM.mWGS84
TemperatureSBE03/SBE38deg celciusITS90
ConductivitySBE21S/mITS90
SalinitySBE21 Practical Salinity Units
ChlorophylAChelsea fluorimeterg/lCalibrated in Aceton
Missing or incorrect values are displayed as -999
Sea surface data collected by the RV Zeeleeuw from 2010-08-19 08:00:00 to 2010-08-19 17:00:00
Time Latitude Longitude Temperature Conductivity Salinity ChlorophylA
2010-08-19 08:02:10 51°24.013 2°50.901 -999 -999 -999 -999
2010-08-19 08:04:10 51°24.025 2°51.636 -999 -999 -999 -999
2010-08-19 08:06:10 51°24.041 2°52.374 -999 -999 -999 -999
2010-08-19 08:08:10 51°24.056 2°53.12 -999 -999 -999 -999
2010-08-19 08:10:10 51°24.073 2°53.863 -999 -999 -999 -999
2010-08-19 08:12:10 51°24.09 2°54.611 -999 -999 -999 -999
2010-08-19 08:14:10 51°24.108 2°55.358 -999 -999 -999 -999
2010-08-19 08:16:10 51°24.126 2°56.095 -999 -999 -999 -999
2010-08-19 08:18:10 51°24.13 2°56.831 -999 -999 -999 -999
2010-08-19 08:20:10 51°24.128 2°57.563 -999 -999 -999 -999
2010-08-19 08:22:10 51°24.005 2°58.235 -999 -999 -999 -999
2010-08-19 08:24:10 51°23.93 2°58.944 -999 -999 -999 -999
2010-08-19 08:26:10 51°23.892 2°59.673 -999 -999 -999 -999
2010-08-19 08:28:10 51°23.883 3°0.423 -999 -999 -999 -999
2010-08-19 08:30:10 51°23.889 3°1.17 -999 -999 -999 -999
2010-08-19 08:32:10 51°23.897 3°1.911 -999 -999 -999 -999
2010-08-19 08:34:10 51°23.902 3°2.654 -999 -999 -999 -999
2010-08-19 08:36:10 51°23.781 3°3.323 -999 -999 -999 -999
2010-08-19 08:38:10 51°23.798 3°4.011 -999 -999 -999 -999
2010-08-19 08:40:10 51°24.158 3°4.443 -999 -999 -999 -999
2010-08-19 08:42:10 51°24.117 3°5.157 -999 -999 -999 -999
2010-08-19 08:44:10 51°24.046 3°5.873 -999 -999 -999 -999
2010-08-19 08:46:10 51°23.995 3°6.588 -999 -999 -999 -999
2010-08-19 08:48:10 51°23.998 3°7.317 -999 -999 -999 -999
2010-08-19 08:50:10 51°24.012 3°8.042 -999 -999 -999 -999
2010-08-19 08:52:10 51°24.043 3°8.78 -999 -999 -999 -999
2010-08-19 08:54:10 51°24.088 3°9.521 -999 -999 -999 -999
2010-08-19 08:56:10 51°24.174 3°10.258 -999 -999 -999 -999
2010-08-19 08:58:10 51°24.294 3°10.994 -999 -999 -999 -999
2010-08-19 09:00:10 51°24.436 3°11.71 -999 -999 -999 -999
2010-08-19 09:02:10 51°24.584 3°12.346 -999 -999 -999 -999
2010-08-19 09:04:10 51°24.716 3°12.658 -999 -999 -999 -999
2010-08-19 09:06:10 51°24.815 3°12.723 -999 -999 -999 -999
2010-08-19 09:08:10 51°24.865 3°12.724 -999 -999 -999 -999
2010-08-19 09:10:10 51°24.866 3°12.606 -999 -999 -999 -999
2010-08-19 09:12:10 51°24.837 3°12.58 -999 -999 -999 -999
2010-08-19 09:14:10 51°24.829 3°12.63 -999 -999 -999 -999
2010-08-19 09:16:10 51°24.841 3°12.708 -999 -999 -999 -999
2010-08-19 09:18:10 51°24.859 3°12.79 -999 -999 -999 -999
2010-08-19 09:20:10 51°24.807 3°12.774 -999 -999 -999 -999
2010-08-19 09:22:10 51°25.058 3°12.388 -999 -999 -999 -999
2010-08-19 09:24:10 51°25.332 3°11.877 -999 -999 -999 -999
2010-08-19 09:26:10 51°25.606 3°11.367 -999 -999 -999 -999
2010-08-19 09:28:10 51°25.812 3°11.112 -999 -999 -999 -999
2010-08-19 09:30:10 51°26.06 3°10.885 -999 -999 -999 -999
2010-08-19 09:32:10 51°26.397 3°10.502 -999 -999 -999 -999
2010-08-19 09:34:10 51°26.726 3°10.027 -999 -999 -999 -999
2010-08-19 09:36:10 51°27.061 3°9.564 -999 -999 -999 -999
2010-08-19 09:38:10 51°27.398 3°9.098 -999 -999 -999 -999
2010-08-19 09:40:10 51°27.75 3°8.657 -999 -999 -999 -999
2010-08-19 09:42:10 51°28.101 3°8.219 -999 -999 -999 -999
2010-08-19 09:44:10 51°28.455 3°7.78 -999 -999 -999 -999
2010-08-19 09:46:10 51°28.805 3°7.345 -999 -999 -999 -999
2010-08-19 09:48:10 51°29.149 3°6.919 -999 -999 -999 -999
2010-08-19 09:50:10 51°29.421 3°6.633 -999 -999 -999 -999
2010-08-19 09:52:10 51°29.536 3°6.582 -999 -999 -999 -999
2010-08-19 09:54:10 51°29.529 3°6.667 -999 -999 -999 -999
2010-08-19 09:56:10 51°29.529 3°6.725 -999 -999 -999 -999
2010-08-19 09:58:10 51°29.518 3°6.747 -999 -999 -999 -999
2010-08-19 10:00:10 51°29.53 3°6.775 -999 -999 -999 -999
2010-08-19 10:02:10 51°29.531 3°6.743 -999 -999 -999 -999
2010-08-19 10:04:10 51°29.521 3°6.901 -999 -999 -999 -999
2010-08-19 10:06:10 51°29.488 3°6.815 -999 -999 -999 -999
2010-08-19 10:08:10 51°29.521 3°6.864 -999 -999 -999 -999
2010-08-19 10:10:10 51°29.499 3°6.872 -999 -999 -999 -999
2010-08-19 10:12:10 51°29.5 3°6.899 -999 -999 -999 -999
2010-08-19 10:14:10 51°29.525 3°6.947 -999 -999 -999 -999
2010-08-19 10:16:10 51°29.561 3°6.999 -999 -999 -999 -999
2010-08-19 10:18:10 51°29.595 3°7.047 -999 -999 -999 -999
2010-08-19 10:20:10 51°29.625 3°7.101 -999 -999 -999 -999
2010-08-19 10:22:10 51°29.682 3°7.067 -999 -999 -999 -999
2010-08-19 10:24:10 51°29.614 3°6.944 -999 -999 -999 -999
2010-08-19 10:26:10 51°29.553 3°6.911 -999 -999 -999 -999
2010-08-19 10:28:10 51°29.566 3°6.95 -999 -999 -999 -999
2010-08-19 10:30:10 51°29.6 3°7.003 -999 -999 -999 -999
2010-08-19 10:32:10 51°29.629 3°7.056 -999 -999 -999 -999
2010-08-19 10:34:10 51°29.608 3°7.098 -999 -999 -999 -999
2010-08-19 10:36:10 51°29.557 3°7.044 -999 -999 -999 -999
2010-08-19 10:38:10 51°29.533 3°7.007 -999 -999 -999 -999
2010-08-19 10:40:10 51°29.544 3°7.041 -999 -999 -999 -999
2010-08-19 10:42:10 51°29.574 3°7.093 -999 -999 -999 -999
2010-08-19 10:44:10 51°29.574 3°7.151 -999 -999 -999 -999
2010-08-19 10:46:10 51°29.546 3°7.097 -999 -999 -999 -999
2010-08-19 10:48:10 51°29.537 3°6.962 -999 -999 -999 -999
2010-08-19 10:50:10 51°29.523 3°6.939 -999 -999 -999 -999
2010-08-19 10:52:10 51°29.549 3°6.983 -999 -999 -999 -999
2010-08-19 10:54:10 51°29.559 3°6.944 -999 -999 -999 -999
2010-08-19 10:56:10 51°29.627 3°6.863 -999 -999 -999 -999
2010-08-19 10:58:10 51°29.683 3°6.853 -999 -999 -999 -999
2010-08-19 11:00:10 51°29.641 3°6.808 -999 -999 -999 -999
2010-08-19 11:02:10 51°29.607 3°6.876 -999 -999 -999 -999
2010-08-19 11:04:10 51°29.608 3°6.924 -999 -999 -999 -999
2010-08-19 11:06:10 51°29.622 3°6.97 -999 -999 -999 -999
2010-08-19 11:08:10 51°29.644 3°7.018 -999 -999 -999 -999
2010-08-19 11:10:10 51°29.671 3°7.064 -999 -999 -999 -999
2010-08-19 11:12:10 51°29.699 3°7.11 -999 -999 -999 -999
2010-08-19 11:14:10 51°29.641 3°7.111 -999 -999 -999 -999
2010-08-19 11:16:10 51°29.556 3°7.026 -999 -999 -999 -999
2010-08-19 11:18:10 51°29.533 3°7.029 -999 -999 -999 -999
2010-08-19 11:20:10 51°29.539 3°7.064 -999 -999 -999 -999
2010-08-19 11:22:10 51°29.548 3°7.12 -999 -999 -999 -999
2010-08-19 11:24:10 51°29.648 3°7.203 -999 -999 -999 -999
2010-08-19 11:26:10 51°29.65 3°6.999 -999 -999 -999 -999
2010-08-19 11:28:10 51°29.614 3°6.907 -999 -999 -999 -999
2010-08-19 11:30:10 51°29.607 3°6.91 -999 -999 -999 -999
2010-08-19 11:32:10 51°29.621 3°6.95 -999 -999 -999 -999
2010-08-19 11:34:10 51°29.622 3°6.997 -999 -999 -999 -999
2010-08-19 11:36:10 51°29.624 3°7.032 -999 -999 -999 -999
2010-08-19 11:38:10 51°29.641 3°7.069 -999 -999 -999 -999
2010-08-19 11:40:10 51°29.646 3°7.109 -999 -999 -999 -999
2010-08-19 11:42:10 51°29.576 3°7.036 -999 -999 -999 -999
2010-08-19 11:44:10 51°29.528 3°6.97 -999 -999 -999 -999
2010-08-19 11:46:10 51°29.53 3°6.987 -999 -999 -999 -999
2010-08-19 11:48:10 51°29.552 3°7.024 -999 -999 -999 -999
2010-08-19 11:50:10 51°29.548 3°7.062 -999 -999 -999 -999
2010-08-19 11:52:10 51°29.519 3°6.923 -999 -999 -999 -999
2010-08-19 11:54:10 51°29.528 3°6.951 -999 -999 -999 -999
2010-08-19 11:56:10 51°29.521 3°7.007 -999 -999 -999 -999
2010-08-19 11:58:10 51°29.547 3°7.034 -999 -999 -999 -999
2010-08-19 13:00:10 51°25.206 3°1.047 -999 -999 -999 -999
2010-08-19 13:02:10 51°24.85 3°0.68 -999 -999 -999 -999
2010-08-19 13:04:10 51°24.491 3°0.324 -999 -999 -999 -999
2010-08-19 13:06:10 51°24.132 2°59.967 -999 -999 -999 -999
2010-08-19 13:08:10 51°23.773 2°59.609 -999 -999 -999 -999
2010-08-19 13:10:10 51°23.411 2°59.244 -999 -999 -999 -999
2010-08-19 13:12:10 51°23.053 2°58.857 -999 -999 -999 -999
2010-08-19 13:14:10 51°22.695 2°58.478 -999 -999 -999 -999
2010-08-19 13:16:10 51°22.327 2°58.136 -999 -999 -999 -999
2010-08-19 13:18:10 51°21.947 2°57.817 -999 -999 -999 -999
2010-08-19 13:20:10 51°21.575 2°57.481 -999 -999 -999 -999
2010-08-19 13:22:10 51°21.211 2°57.123 -999 -999 -999 -999
2010-08-19 13:24:10 51°20.848 2°56.765 -999 -999 -999 -999
2010-08-19 13:26:10 51°20.484 2°56.4 -999 -999 -999 -999
2010-08-19 13:28:10 51°20.118 2°56.036 -999 -999 -999 -999
2010-08-19 13:30:10 51°19.751 2°55.668 -999 -999 -999 -999
2010-08-19 13:32:10 51°19.383 2°55.296 -999 -999 -999 -999
2010-08-19 13:34:10 51°19.019 2°54.909 -999 -999 -999 -999
2010-08-19 13:36:10 51°18.658 2°54.525 -999 -999 -999 -999
2010-08-19 13:38:10 51°18.3 2°54.139 -999 -999 -999 -999
2010-08-19 13:40:10 51°17.938 2°53.757 -999 -999 -999 -999
2010-08-19 13:42:10 51°17.562 2°53.403 -999 -999 -999 -999
2010-08-19 13:44:10 51°17.161 2°53.191 -999 -999 -999 -999
2010-08-19 13:46:10 51°16.729 2°53.175 -999 -999 -999 -999
2010-08-19 13:48:10 51°16.294 2°53.204 -999 -999 -999 -999
2010-08-19 13:50:10 51°15.894 2°53.429 -999 -999 -999 -999
2010-08-19 13:52:10 51°15.549 2°53.825 -999 -999 -999 -999
2010-08-19 13:54:10 51°15.234 2°54.197 -999 -999 -999 -999